FW0041 Weather Reports


Display with metric or nautical units.
time (UTC)temp
F
wind
direction
speed
MPH
gust
MPH
rain 1hr
in
rain 24hr
in
rain mn
in
humidity
%
barometer
mb
20260831043036 85 176 0.0 2.0 0.00 0.00 0.00 62 1015.2
20260831041507 85 176 0.0 1.0 0.00 0.00 0.00 61 1015.2
20260831040033 86 176 0.0 1.0 0.00 0.00 0.00 60 1014.9
20260831034604 86 176 0.0 1.0 0.00 0.00 0.00 58 1014.8
20260831034501 86 176 0.0 1.0 0.00 0.00 0.00 58 1014.8
20260831033033 87 176 0.0 0.0 0.00 0.00 0.00 56 1014.6
20260831031602 87 176 0.0 1.0 0.00 0.00 0.00 55 1014.7
20260831031502 87 176 0.0 1.0 0.00 0.00 0.00 55 1014.7
20260831030031 88 176 0.0 1.0 0.00 0.00 0.00 53 1014.6
20260831024613 88 176 0.0 1.0 0.00 0.00 0.00 52 1014.3
20260831023029 89 176 0.0 2.0 0.00 0.00 0.00 49 1014.1
20260831021548 89 176 0.0 2.0 0.00 0.00 0.00 47 1013.9
20260831020029 90 176 0.0 1.0 0.00 0.00 0.00 46 1013.7
20260831014608 91 176 1.0 2.0 0.00 0.00 0.00 44 1013.6
20260831013027 91 176 0.0 2.0 0.00 0.00 0.00 43 1013.7
20260831011602 92 179 0.0 2.0 0.00 0.00 0.00 44 1013.6
20260831010029 93 179 0.0 2.0 0.00 0.00 0.00 43 1013.4
20260831004555 94 179 1.0 3.0 0.00 0.00 0.00 42 1013.3
20260831003028 95 179 1.0 3.0 0.00 0.00 0.00 41 1013.1
20260831001601 97 180 0.0 2.0 0.00 0.00 0.00 40 1013.0
20260831000028 98 180 0.0 2.0 0.00 0.00 0.00 38 1013.0
20260830234611 99 180 1.0 5.0 0.00 0.00 0.00 37 1013.1
20260830234501 99 180 1.0 5.0 0.00 0.00 0.00 37 1013.0
20260830233034 100 184 1.0 5.0 0.00 0.00 0.00 37 1013.1
20260830231554 101 153 0.0 3.0 0.00 0.00 0.00 36 1013.0
20260830230033 102 169 2.0 5.0 0.00 0.00 0.00 36 1013.1
20260830224550 102 146 1.0 4.0 0.00 0.00 0.00 36 1013.1
20260830223020 103 180 1.0 3.0 0.00 0.00 0.00 33 1013.1
20260830221534 103 194 1.0 6.0 0.00 0.00 0.00 33 1013.3
20260830220056 103 167 1.0 7.0 0.00 0.00 0.00 33 1013.3
20260830214526 102 184 3.0 9.0 0.00 0.00 0.00 34 1013.4
20260830213111 102 193 2.0 9.0 0.00 0.00 0.00 34 1013.5
20260830211520 102 173 2.0 7.0 0.00 0.00 0.00 35 1013.6
20260830210047 103 185 3.0 11.0 0.00 0.00 0.00 34 1013.9
20260830204518 103 256 2.0 13.0 0.00 0.00 0.00 35 1014.2
20260830203034 103 181 2.0 8.0 0.00 0.00 0.00 35 1014.4
20260830201517 103 187 3.0 9.0 0.00 0.00 0.00 35 1014.4
20260830200026 102 196 1.0 7.0 0.00 0.00 0.00 36 1014.6
20260830194553 101 202 1.0 8.0 0.00 0.00 0.00 37 1014.8
20260830193013 100 190 2.0 9.0 0.00 0.00 0.00 37 1015.2
20260830191533 99 223 3.0 13.0 0.00 0.00 0.00 39 1015.5
20260830190054 98 158 1.0 7.0 0.00 0.00 0.00 42 1015.6
20260830184519 96 179 2.0 6.0 0.00 0.00 0.00 44 1015.8
20260830183041 95 5 2.0 4.0 0.00 0.00 0.00 48 1016.0
20260830181513 94 198 1.0 5.0 0.00 0.00 0.00 46 1016.3
20260830180037 94 182 2.0 5.0 0.00 0.00 0.00 49 1016.6
20260830174505 93 213 0.0 3.0 0.00 0.00 0.00 52 1016.9
20260830173037 93 356 2.0 4.0 0.00 0.00 0.00 54 1017.1
20260830171602 92 7 1.0 8.0 0.00 0.00 0.00 54 1017.2
20260830170021 92 181 0.0 5.0 0.00 0.00 0.00 55 1017.2
20260830164541 92 176 2.0 6.0 0.00 0.00 0.00 56 1017.5
20260830163010 91 211 1.0 5.0 0.00 0.00 0.00 59 1017.5
20260830161529 89 271 1.0 4.0 0.00 0.00 0.00 61 1017.7
20260830160051 87 195 2.0 7.0 0.00 0.00 0.00 69 1017.7
20260830154503 84 179 1.0 5.0 0.00 0.00 0.00 75 1017.7
20260830153036 83 182 2.0 6.0 0.00 0.00 0.00 79 1017.6
20260830151553 82 190 2.0 3.0 0.00 0.00 0.00 82 1017.6
20260830150021 81 189 1.0 3.0 0.00 0.00 0.00 85 1017.6
20260830144551 80 188 0.0 3.0 0.00 0.00 0.00 87 1017.4
20260830143013 80 186 2.0 6.0 0.00 0.00 0.00 87 1017.6
20260830141552 79 206 1.0 4.0 0.00 0.00 0.00 88 1017.5
20260830140007 79 198 0.0 3.0 0.00 0.00 0.00 88 1017.5
20260830134535 78 202 0.0 3.0 0.00 0.00 0.00 88 1017.4
20260830133010 78 201 0.0 1.0 0.00 0.00 0.00 88 1017.3
20260830131530 77 201 0.0 2.0 0.00 0.00 0.00 87 1017.3
20260830130057 77 201 0.0 0.0 0.00 0.00 0.00 87 1017.2
20260830124524 77 201 0.0 0.0 0.00 0.00 0.00 87 1016.9
20260830123048 77 201 0.0 0.0 0.00 0.00 0.00 87 1016.9
20260830121515 77 201 0.0 0.0 0.00 0.00 0.00 86 1016.9
20260830120049 77 201 0.0 0.0 0.00 0.00 0.00 86 1016.9
20260830114519 77 201 0.0 0.0 0.00 0.00 0.00 86 1016.8
20260830113053 77 201 0.0 0.0 0.00 0.00 0.00 85 1016.6
20260830111506 77 201 0.0 0.0 0.00 0.00 0.00 85 1016.4
20260830110034 78 201 0.0 0.0 0.00 0.00 0.00 85 1016.3
20260830104502 78 201 0.0 0.0 0.00 0.00 0.00 85 1016.3
20260830103029 78 201 0.0 0.0 0.00 0.00 0.00 84 1016.1
20260830101554 78 201 0.0 0.0 0.00 0.00 0.00 84 1016.0
20260830100028 78 201 0.0 0.0 0.00 0.00 0.00 83 1016.0
20260830094608 78 201 0.0 0.0 0.00 0.00 0.00 83 1016.0
20260830093020 79 201 0.0 0.0 0.00 0.00 0.00 83 1015.9
20260830091544 79 201 0.0 0.0 0.00 0.00 0.00 83 1015.9
20260830090024 79 201 0.0 1.0 0.00 0.00 0.00 82 1015.8
20260830084542 79 201 0.0 0.0 0.00 0.00 0.00 82 1015.9
20260830083004 80 201 0.0 0.0 0.00 0.00 0.00 81 1015.8
20260830081528 80 201 0.0 0.0 0.00 0.00 0.00 80 1015.9
20260830080056 80 201 0.0 0.0 0.00 0.00 0.00 79 1015.9
20260830074518 80 201 0.0 0.0 0.00 0.00 0.00 79 1016.0
20260830073042 81 201 0.0 2.0 0.00 0.00 0.00 78 1016.0
20260830071518 81 201 0.0 2.0 0.00 0.00 0.00 78 1016.2
20260830070041 81 201 0.0 2.0 0.00 0.00 0.00 77 1016.0
20260830064533 82 201 0.0 2.0 0.00 0.00 0.00 76 1016.0
20260830063030 82 201 1.0 3.0 0.00 0.00 0.00 76 1016.0
20260830061504 82 203 0.0 3.0 0.00 0.00 0.00 75 1016.2
20260830060028 83 203 1.0 2.0 0.00 0.00 0.00 74 1015.9
20260830054548 83 203 0.0 3.0 0.00 0.00 0.00 74 1015.9
20260830053014 83 187 1.0 5.0 0.00 0.00 0.00 73 1015.9
20260830051536 84 194 1.0 4.0 0.00 0.00 0.00 72 1016.0
20260830044607 85 196 0.0 1.0 0.00 0.00 0.00 70 1015.9